Other Public Products
Issued by NWS Charleston, SC

Current Version | Previous Version | Text Only | Print | Product List | Glossary Off
Versions: 1 2 3 4 5 6 7 8 9 10 11 12 13 14 15 16 17 18 19 20 21 22 23 24 25 26 27 28 29 30 31 32 33 34 35 36 37 38 39 40 41 42 43 44 45 46 47 48 49 50

000
FPUS82 KCHS 170627
OPUCHS

TEST...KCHS/KSAV Gateway Observations...TEST
National Weather Service Charleston SC
200 AM EDT TUE OCT 17 2017

NOTE: "fair" indicates few or no clouds below 12,000 feet with no
significant weather and/or obstructions to visibility.

SCZ050-WAZ558-NCZ071-TXZ119-213-PAZ071-DCZ001-FLZ074-172-MI076-
NYZ176-178-MAZ016-IL014-TNZ027-NJZ106-GAZ044-MD014-170700-

...Gateway Observations for Charleston International...

CITY           SKY/WX    TMP DP  RH WIND       PRES   REMARKS
Chas Airport   PTCLDY    58  54  86 NE9       30.16S
6HR MIN TEMP:  58; 6HR MAX TEMP:  63;

Seattle        MOCLDY    52  46  80 S6        30.08F
6HR MIN TEMP:  52; 6HR MAX TEMP:  60;

Charlotte      CLEAR     52  40  63 N9        30.26S
6HR MIN TEMP:  52; 6HR MAX TEMP:  59;

Dallas DFW     CLEAR     60  41  49 CALM      30.27S
6HR MIN TEMP:  59; 6HR MAX TEMP:  69;

Dallas Love    CLEAR     55  45  68 CALM      30.28F
6HR MIN TEMP:  55; 6HR MAX TEMP:  70;

Philladelphia  CLEAR     46  35  65 N3        30.28R
6HR MIN TEMP:  46; 6HR MAX TEMP:  54;

Wash National  CLEAR     50  38  63 NW7       30.28R
6HR MIN TEMP:  50; 6HR MAX TEMP:  59;

Baltimore      PTCLDY    46  38  73 NW3       30.26R
6HR MIN TEMP:  45; 6HR MAX TEMP:  55;

Miami          PTCLDY    78  75  90 CALM      29.96F
6HR MIN TEMP:  78; 6HR MAX TEMP:  83;

Detroit        CLEAR     44  40  85 S5        30.26S
6HR MIN TEMP:  43; 6HR MAX TEMP:  51;

Newark         CLEAR     46  30  53 NW10      30.24R
6HR MIN TEMP:  46; 6HR MAX TEMP:  54;

Laguardia      CLEAR     48  32  53 NW12      30.23R
6HR MIN TEMP:  48; 6HR MAX TEMP:  55;

J F K          CLEAR     46  32  58 NW12      30.24R
6HR MIN TEMP:  45; 6HR MAX TEMP:  55;

Boston Logan   CLEAR     43  33  68 NW10      30.17S
6HR MIN TEMP:  43; 6HR MAX TEMP:  50;

Ft. Lauderdale MOCLDY    80  74  81 E3        29.96S
6HR MIN TEMP:  80; 6HR MAX TEMP:  81;

Chicago O`Hare CLEAR     49  38  65 SW7       30.20S
6HR MIN TEMP:  48; 6HR MAX TEMP:  57;

Chicago Midway PTCLDY    50  39  66 SW7       30.21S
6HR MIN TEMP:  50; 6HR MAX TEMP:  58;

Houston Bush   CLEAR     57  50  77 NE3       30.24F
6HR MIN TEMP:  56; 6HR MAX TEMP:  70;

Houston Hobby  CLEAR     64  45  49 NE10      30.23S
6HR MIN TEMP:  64; 6HR MAX TEMP:  73;

Nashville      CLEAR     47  43  86 NE3       30.32S
6HR MIN TEMP:  47; 6HR MAX TEMP:  57;

Atlanta        PTCLDY    55  43  63 NE9       30.23S
6HR MIN TEMP:  55; 6HR MAX TEMP:  60;


$$

GAZ044-118-TXZ119-213-NCZ071-DCZ001-MDZ014-506-PAZ021-071-NJZ106-
NYZ176-178-MAZ106-OHZ011-021-055-MIZ076-KYZ091-ILZ014-INZ047-
MNZ060-ONZ431-170700-

...Gateway Observations for Savannah International...

CITY           SKY/WX    TMP DP  RH WIND       PRES   REMARKS
Savannah Arpt  CLOUDY    62  55  77 NE12      30.16R
6HR MIN TEMP:  62; 6HR MAX TEMP:  72;

Atlanta        PTCLDY    55  43  63 NE9       30.23S
6HR MIN TEMP:  55; 6HR MAX TEMP:  60;

Charlotte      CLEAR     52  40  63 N9        30.26S
6HR MIN TEMP:  52; 6HR MAX TEMP:  59;

Dallas DFW     CLEAR     60  41  49 CALM      30.27S
6HR MIN TEMP:  59; 6HR MAX TEMP:  69;

Houston Bush   CLEAR     57  50  77 NE3       30.24F
6HR MIN TEMP:  56; 6HR MAX TEMP:  70;

Wash National  CLEAR     50  38  63 NW7       30.28R
6HR MIN TEMP:  50; 6HR MAX TEMP:  59;

Wash Dulles    CLEAR     49  36  61 N10       30.27R
6HR MIN TEMP:  48; 6HR MAX TEMP:  55;

Baltimore      PTCLDY    46  38  73 NW3       30.26R
6HR MIN TEMP:  45; 6HR MAX TEMP:  55;

Philadelphia   CLEAR     46  35  65 N3        30.28R
6HR MIN TEMP:  46; 6HR MAX TEMP:  54;

Newark         CLEAR     46  30  53 NW10      30.24R
6HR MIN TEMP:  46; 6HR MAX TEMP:  54;

Laguardia      CLEAR     48  32  53 NW12      30.23R
6HR MIN TEMP:  48; 6HR MAX TEMP:  55;

J F K          CLEAR     46  32  58 NW12      30.24R
6HR MIN TEMP:  45; 6HR MAX TEMP:  55;

Boston         CLEAR     43  33  68 NW10      30.17S
6HR MIN TEMP:  43; 6HR MAX TEMP:  50;

Pittsburg      CLEAR     38  35  89 CALM      30.29S
6HR MIN TEMP:  38; 6HR MAX TEMP:  51;

Akron          CLEAR     42  35  76 S3        30.29S
6HR MIN TEMP:  41; 6HR MAX TEMP:  47;

Cleveland      CLEAR     41  36  82 S5        30.30S
6HR MIN TEMP:  40; 6HR MAX TEMP:  50;

Cincinnati     CLEAR     40  40 100 CALM      30.31S
6HR MIN TEMP:  40; 6HR MAX TEMP:  53;

Columbus       CLEAR     41  40  97 CALM      30.31R
Detroit        CLEAR     44  40  85 S5        30.26S
6HR MIN TEMP:  43; 6HR MAX TEMP:  51;

Chicago O`Hare CLEAR     49  38  65 SW7       30.20S
6HR MIN TEMP:  48; 6HR MAX TEMP:  57;

Minneapolis    CLOUDY    56  40  55 SW8       29.96S
6HR MIN TEMP:  56; 6HR MAX TEMP:  62;

Indianapolis   CLEAR     45  38  76 SW3       30.30S
6HR MIN TEMP:  44; 6HR MAX TEMP:  54;

Toronto Canada PTCLDY    37  30  75 W7        30.25R WCI  32

$$




USA.gov is the U.S. government's official web portal to all federal, state and local government web resources and services.